�������l�o���
Date,Time,MP-1(��Sv/h),MP-2(��Sv/h),MP-3(��Sv/h),MP-4(��Sv/h),MP-5(��Sv/h),MP-6(��Sv/h),MP-7(��Sv/h),MP-8(��Sv/h),����,����(m/s),���J
2021/03/07,00:00,0.643,0.944,0.596,1.179,0.840,0.373,0.661,0.620,�k�k��,6.1,��
2021/03/07,00:10,0.642,0.948,0.596,1.177,0.841,0.373,0.660,0.620,�k�k��,6.7,��
2021/03/07,00:20,0.643,0.947,0.595,1.179,0.840,0.373,0.660,0.619,�k�k��,6.0,��
2021/03/07,00:30,0.643,0.945,0.595,1.181,0.840,0.373,0.662,0.620,�k,4.9,��
2021/03/07,00:40,0.642,0.947,0.597,1.180,0.838,0.373,0.661,0.620,�k,5.2,��
2021/03/07,00:50,0.640,0.946,0.596,1.178,0.839,0.373,0.661,0.620,�k,4.7,��
2021/03/07,01:00,0.644,0.946,0.597,1.179,0.840,0.373,0.660,0.620,�k,5.3,��
2021/03/07,01:10,0.644,0.947,0.596,1.180,0.839,0.373,0.660,0.620,�k�k��,6.9,��
2021/03/07,01:20,0.642,0.947,0.595,1.178,0.838,0.372,0.662,0.618,�k�k��,7.2,��
2021/03/07,01:30,0.643,0.946,0.596,1.178,0.840,0.372,0.660,0.619,�k�k��,8.5,��
2021/03/07,01:40,0.644,0.947,0.596,1.179,0.839,0.372,0.661,0.619,�k�k��,9.5,��
2021/03/07,01:50,0.642,0.944,0.597,1.180,0.840,0.371,0.660,0.619,�k�k��,10.2,��
2021/03/07,02:00,0.643,0.946,0.595,1.179,0.841,0.372,0.660,0.620,�k�k��,7.9,��
2021/03/07,02:10,0.643,0.945,0.596,1.178,0.837,0.371,0.662,0.619,�k�k��,7.5,��
2021/03/07,02:20,0.642,0.943,0.594,1.180,0.839,0.371,0.661,0.618,�k�k��,8.0,��
2021/03/07,02:30,0.643,0.943,0.594,1.180,0.838,0.371,0.661,0.618,�k�k��,7.9,��
2021/03/07,02:40,0.642,0.943,0.594,1.180,0.836,0.371,0.660,0.619,�k�k��,7.2,��
2021/03/07,02:50,0.643,0.942,0.595,1.180,0.839,0.371,0.660,0.619,�k�k��,5.1,��
2021/03/07,03:00,0.643,0.943,0.593,1.182,0.838,0.373,0.660,0.620,�k�k��,6.2,��
2021/03/07,03:10,0.642,0.944,0.592,1.182,0.838,0.371,0.661,0.619,�k�k��,6.1,��
2021/03/07,03:20,0.645,0.944,0.594,1.179,0.838,0.373,0.661,0.620,�k�k��,5.6,��
2021/03/07,03:30,0.643,0.945,0.592,1.179,0.840,0.373,0.659,0.620,�k�k��,5.9,��
2021/03/07,03:40,0.643,0.946,0.596,1.180,0.838,0.372,0.660,0.619,�k�k��,4.0,��
2021/03/07,03:50,0.642,0.947,0.596,1.181,0.839,0.372,0.661,0.620,�k,4.8,��
2021/03/07,04:00,0.642,0.947,0.595,1.180,0.838,0.372,0.662,0.618,�k�k��,4.7,��
2021/03/07,04:10,0.643,0.947,0.595,1.179,0.838,0.372,0.660,0.618,�k�k��,6.6,��
2021/03/07,04:20,0.643,0.945,0.596,1.178,0.839,0.371,0.660,0.620,�k�k��,5.4,��
2021/03/07,04:30,0.642,0.947,0.594,1.179,0.839,0.371,0.661,0.619,�k�k��,6.1,��
2021/03/07,04:40,0.642,0.949,0.595,1.178,0.837,0.371,0.661,0.619,�k�k��,5.7,��
2021/03/07,04:50,0.643,0.945,0.595,1.179,0.838,0.373,0.660,0.620,�k,6.8,��
2021/03/07,05:00,0.642,0.946,0.596,1.178,0.839,0.372,0.660,0.619,�k,7.3,��
2021/03/07,05:10,0.642,0.944,0.595,1.179,0.840,0.372,0.660,0.621,�k,7.4,��
2021/03/07,05:20,0.642,0.944,0.594,1.181,0.837,0.371,0.660,0.619,�k,7.3,��
2021/03/07,05:30,0.641,0.943,0.595,1.180,0.839,0.371,0.660,0.620,�k,7.4,��
2021/03/07,05:40,0.641,0.944,0.594,1.179,0.836,0.371,0.660,0.619,�k,6.0,��
2021/03/07,05:50,0.641,0.943,0.596,1.181,0.839,0.371,0.659,0.619,�k,5.4,��
2021/03/07,06:00,0.641,0.944,0.593,1.177,0.839,0.371,0.661,0.619,�k,5.0,��
2021/03/07,06:10,0.642,0.943,0.595,1.179,0.837,0.373,0.660,0.619,�k,5.8,��
2021/03/07,06:20,0.641,0.945,0.594,1.180,0.838,0.371,0.661,0.620,�k,6.7,��
2021/03/07,06:30,0.641,0.945,0.596,1.179,0.840,0.372,0.660,0.619,�k,5.9,��
2021/03/07,06:40,0.641,0.947,0.594,1.178,0.839,0.371,0.660,0.618,�k�k��,6.0,��
2021/03/07,06:50,0.642,0.945,0.594,1.178,0.840,0.371,0.660,0.620,�k,5.1,��
2021/03/07,07:00,0.640,0.944,0.595,1.181,0.839,0.372,0.660,0.619,�k,5.0,��
2021/03/07,07:10,0.642,0.946,0.594,1.180,0.837,0.371,0.660,0.620,�k,3.8,��
2021/03/07,07:20,0.641,0.945,0.594,1.180,0.839,0.372,0.661,0.619,�k,3.6,��
2021/03/07,07:30,0.642,0.945,0.595,1.179,0.839,0.371,0.659,0.618,�k,4.0,��
2021/03/07,07:40,0.643,0.945,0.594,1.180,0.839,0.372,0.659,0.618,�k,4.2,��
2021/03/07,07:50,0.642,0.946,0.595,1.179,0.839,0.371,0.661,0.619,�k,4.5,��
2021/03/07,08:00,0.641,0.946,0.594,1.179,0.839,0.371,0.660,0.620,�k�k��,5.0,��
2021/03/07,08:10,0.641,0.946,0.596,1.181,0.839,0.371,0.659,0.620,�k,6.2,��
2021/03/07,08:20,0.643,0.945,0.595,1.180,0.838,0.371,0.661,0.620,�k,4.9,��
2021/03/07,08:30,0.643,0.947,0.595,1.180,0.839,0.372,0.662,0.619,�k,5.7,��
2021/03/07,08:40,0.644,0.946,0.596,1.182,0.838,0.373,0.660,0.619,�k�k��,5.7,��
2021/03/07,08:50,0.643,0.947,0.596,1.182,0.839,0.370,0.661,0.620,�k�k��,4.4,��
2021/03/07,09:00,0.643,0.948,0.595,1.179,0.838,0.373,0.663,0.618,�k,4.7,��
2021/03/07,09:10,0.644,0.949,0.595,1.179,0.841,0.372,0.663,0.618,�k�k��,5.3,��
2021/03/07,09:20,0.644,0.949,0.597,1.182,0.839,0.371,0.659,0.620,�k�k��,5.5,��
2021/03/07,09:30,0.643,0.945,0.594,1.181,0.838,0.372,0.662,0.621,�k�k��,5.5,��
2021/03/07,09:40,0.643,0.946,0.596,1.179,0.837,0.373,0.659,0.621,�k�k��,6.0,��
2021/03/07,09:50,0.643,0.947,0.597,1.179,0.839,0.373,0.660,0.619,�k��,6.1,��
2021/03/07,10:00,0.644,0.945,0.596,1.182,0.837,0.372,0.660,0.619,�k�k��,5.7,��
2021/03/07,10:10,0.641,0.944,0.596,1.181,0.838,0.371,0.658,0.620,�k�k��,5.4,��
2021/03/07,10:20,0.642,0.944,0.595,1.182,0.837,0.371,0.660,0.620,�k��,5.7,��
2021/03/07,10:30,0.642,0.945,0.595,1.181,0.839,0.373,0.661,0.620,�k��,4.7,��
2021/03/07,10:40,0.642,0.946,0.595,1.184,0.839,0.373,0.660,0.618,�k��,5.2,��
2021/03/07,10:50,0.643,0.946,0.595,1.181,0.843,0.373,0.659,0.619,�k�k��,4.9,��
2021/03/07,11:00,0.643,0.946,0.595,1.182,0.841,0.372,0.660,0.618,�k��,5.1,��
2021/03/07,11:10,0.643,0.948,0.596,1.182,0.841,0.373,0.660,0.619,���k��,5.1,��
2021/03/07,11:20,0.645,0.947,0.597,1.181,0.841,0.374,0.658,0.620,�k��,4.4,��
2021/03/07,11:30,0.643,0.945,0.595,1.180,0.840,0.372,0.658,0.620,�k�k��,4.5,��
2021/03/07,11:40,0.644,0.945,0.597,1.184,0.843,0.372,0.659,0.620,�k��,4.9,��
2021/03/07,11:50,0.643,0.946,0.596,1.181,0.842,0.372,0.660,0.619,�k��,4.7,��
2021/03/07,12:00,0.645,0.946,0.595,1.181,0.842,0.373,0.660,0.621,�k��,4.7,��
2021/03/07,12:10,0.646,0.947,0.597,1.182,0.841,0.373,0.660,0.621,���k��,4.6,��
2021/03/07,12:20,0.645,0.947,0.596,1.182,0.840,0.372,0.658,0.622,�k��,3.8,��
2021/03/07,12:30,0.645,0.949,0.596,1.183,0.840,0.373,0.657,0.620,�k��,4.1,��
2021/03/07,12:40,0.646,0.947,0.597,1.182,0.841,0.373,0.659,0.622,���k��,3.4,��
2021/03/07,12:50,0.644,0.946,0.597,1.182,0.841,0.372,0.659,0.621,���k��,4.0,��
2021/03/07,13:00,0.646,0.948,0.597,1.184,0.840,0.373,0.661,0.622,���k��,4.5,��
2021/03/07,13:10,0.645,0.948,0.598,1.183,0.842,0.373,0.658,0.621,���k��,4.4,��
2021/03/07,13:20,0.646,0.945,0.597,1.183,0.842,0.373,0.661,0.620,�k��,3.3,��
2021/03/07,13:30,0.644,0.949,0.596,1.181,0.841,0.373,0.661,0.622,���k��,3.8,��
2021/03/07,13:40,0.647,0.950,0.598,1.183,0.842,0.373,0.661,0.621,���k��,4.1,��
2021/03/07,13:50,0.646,0.948,0.599,1.181,0.842,0.372,0.660,0.619,�k��,4.0,��
2021/03/07,14:00,0.646,0.949,0.597,1.183,0.843,0.374,0.660,0.618,���k��,3.3,��
2021/03/07,14:10,0.645,0.949,0.598,1.183,0.841,0.374,0.660,0.618,���k��,3.8,��
2021/03/07,14:20,0.646,0.952,0.598,1.183,0.844,0.374,0.660,0.618,���k��,3.4,��
2021/03/07,14:30,0.645,0.949,0.598,1.183,0.842,0.375,0.660,0.617,��,4.0,��
2021/03/07,14:40,0.645,0.952,0.599,1.184,0.842,0.373,0.659,0.618,���k��,3.2,��
2021/03/07,14:50,0.646,0.952,0.598,1.183,0.844,0.374,0.659,0.620,���k��,3.5,��
2021/03/07,15:00,0.644,0.952,0.598,1.182,0.844,0.374,0.660,0.617,���k��,3.8,��
2021/03/07,15:10,0.645,0.952,0.599,1.183,0.843,0.373,0.659,0.620,���k��,3.7,��
2021/03/07,15:20,0.645,0.951,0.598,1.183,0.844,0.373,0.659,0.619,��,3.1,��
2021/03/07,15:30,0.645,0.952,0.599,1.185,0.842,0.373,0.660,0.619,��,4.0,��
2021/03/07,15:40,0.645,0.950,0.596,1.183,0.842,0.373,0.658,0.621,��,4.4,��
2021/03/07,15:50,0.644,0.952,0.599,1.183,0.843,0.374,0.661,0.621,���쓌,3.3,��
2021/03/07,16:00,0.645,0.949,0.598,1.182,0.842,0.372,0.658,0.622,���쓌,2.8,��
2021/03/07,16:10,0.647,0.952,0.599,1.183,0.843,0.374,0.662,0.620,�쓌,2.5,��
2021/03/07,16:20,0.642,0.949,0.596,1.182,0.844,0.373,0.663,0.620,���쓌,4.6,��
2021/03/07,16:30,0.645,0.951,0.597,1.183,0.845,0.375,0.663,0.620,���쓌,2.6,��
2021/03/07,16:40,0.644,0.950,0.596,1.182,0.843,0.373,0.662,0.621,�쓌,3.4,��
2021/03/07,16:50,0.645,0.950,0.597,1.183,0.843,0.374,0.662,0.620,���쓌,3.5,��
2021/03/07,17:00,0.643,0.953,0.599,1.184,0.845,0.372,0.661,0.620,�쓌,3.7,��
2021/03/07,17:10,0.646,0.948,0.597,1.182,0.844,0.373,0.662,0.620,�쓌,3.9,��
2021/03/07,17:20,0.645,0.950,0.597,1.183,0.843,0.372,0.663,0.621,�쓌,2.3,��
2021/03/07,17:30,0.644,0.949,0.598,1.181,0.842,0.374,0.662,0.620,��,2.2,��
2021/03/07,17:40,0.644,0.951,0.597,1.181,0.845,0.373,0.661,0.620,��쐼,2.0,��
2021/03/07,17:50,0.643,0.950,0.597,1.183,0.844,0.374,0.661,0.620,��,2.2,��
2021/03/07,18:00,0.644,0.950,0.598,1.183,0.843,0.374,0.661,0.619,��쐼,2.3,��
2021/03/07,18:10,0.643,0.951,0.598,1.182,0.842,0.374,0.661,0.620,��쐼,2.3,��
2021/03/07,18:20,0.644,0.952,0.597,1.185,0.844,0.373,0.660,0.620,��쐼,2.3,��
2021/03/07,18:30,0.644,0.952,0.598,1.183,0.845,0.373,0.660,0.619,��쐼,2.3,��
2021/03/07,18:40,0.644,0.949,0.599,1.182,0.842,0.373,0.661,0.619,��,2.3,��
2021/03/07,18:50,0.645,0.948,0.599,1.183,0.844,0.373,0.663,0.619,��,2.6,��
2021/03/07,19:00,0.643,0.952,0.597,1.181,0.843,0.373,0.659,0.621,��쐼,2.6,��
2021/03/07,19:10,0.646,0.950,0.598,1.184,0.843,0.374,0.660,0.622,��쐼,2.5,��
2021/03/07,19:20,0.644,0.951,0.598,1.183,0.846,0.372,0.660,0.620,�쐼,2.6,��
2021/03/07,19:30,0.645,0.950,0.596,1.182,0.843,0.371,0.658,0.620,��쐼,2.2,��
2021/03/07,19:40,0.643,0.950,0.596,1.182,0.845,0.374,0.660,0.619,��쐼,3.3,��
2021/03/07,19:50,0.645,0.951,0.597,1.180,0.843,0.374,0.661,0.621,��쐼,2.8,��
2021/03/07,20:00,0.644,0.950,0.597,1.181,0.843,0.374,0.660,0.619,��,2.9,��
2021/03/07,20:10,0.646,0.948,0.597,1.184,0.842,0.373,0.662,0.621,��,2.6,��
2021/03/07,20:20,0.644,0.949,0.597,1.181,0.843,0.373,0.662,0.620,��쐼,3.5,��
2021/03/07,20:30,0.644,0.949,0.595,1.182,0.842,0.372,0.660,0.621,��쐼,3.4,��
2021/03/07,20:40,0.645,0.949,0.598,1.180,0.842,0.372,0.660,0.617,��쐼,3.1,��
2021/03/07,20:50,0.643,0.949,0.597,1.182,0.843,0.374,0.659,0.620,�쐼,2.6,��
2021/03/07,21:00,0.646,0.949,0.596,1.181,0.843,0.374,0.663,0.620,�쐼,2.8,��
2021/03/07,21:10,0.644,0.950,0.597,1.182,0.841,0.373,0.662,0.620,�쐼,1.7,��
2021/03/07,21:20,0.645,0.948,0.596,1.181,0.842,0.375,0.660,0.619,�쐼,2.3,��
2021/03/07,21:30,0.643,0.947,0.596,1.181,0.842,0.372,0.659,0.618,���쐼,2.9,��
2021/03/07,21:40,0.646,0.947,0.597,1.183,0.842,0.372,0.659,0.621,���쐼,2.6,��
2021/03/07,21:50,0.645,0.947,0.598,1.184,0.843,0.373,0.659,0.620,���쐼,2.6,��
2021/03/07,22:00,0.644,0.949,0.596,1.183,0.842,0.373,0.662,0.620,���쐼,2.2,��
2021/03/07,22:10,0.644,0.949,0.599,1.182,0.844,0.374,0.662,0.620,���쐼,2.6,��
2021/03/07,22:20,0.646,0.948,0.597,1.185,0.843,0.374,0.660,0.621,���쐼,2.3,��
2021/03/07,22:30,0.645,0.950,0.598,1.182,0.842,0.373,0.661,0.620,���쐼,3.8,��
2021/03/07,22:40,0.647,0.949,0.596,1.184,0.841,0.374,0.661,0.620,�쐼,4.3,��
2021/03/07,22:50,0.644,0.949,0.596,1.182,0.843,0.373,0.660,0.621,�쐼,3.8,��
2021/03/07,23:00,0.645,0.949,0.598,1.183,0.842,0.372,0.661,0.620,�쐼,3.6,��
2021/03/07,23:10,0.643,0.949,0.598,1.181,0.844,0.372,0.660,0.620,�쐼,3.5,��
2021/03/07,23:20,0.646,0.949,0.596,1.182,0.842,0.373,0.660,0.620,�쐼,3.0,��
2021/03/07,23:30,0.646,0.948,0.597,1.181,0.844,0.372,0.661,0.620,�쐼,3.2,��
2021/03/07,23:40,0.647,0.948,0.597,1.183,0.843,0.372,0.660,0.620,���쐼,2.0,��
2021/03/07,23:50,0.647,0.949,0.597,1.182,0.842,0.372,0.660,0.620,���쐼,1.7,��
